Home   Weather   Orléans   Past weeks

Flag for France Past Weather in Orléans, Centre-Val de Loire, France — Yesterday and Last 2 Weeks

Now
50 °F

Overcast.


Feels Like: N/A
Forecast: 41 / 46 °F
Wind: N/A

Location: Orleans Airport

Current Time: Feb 27, 2017 at 8:13:43 am

Latest Report: Feb 27, 2017 at 7:30 am


Visibility: N/A

Pressure: 29.68 "Hg

Humidity: 76%

Dew Point: 43 °F

Location of OrléansLocation

Past Weather in Orléans — Graph

°F

Orléans Temperature Yesterday

Maximum temperature yesterday: 54 °F (at 4:00 pm)
Minimum temperature yesterday: 41 °F (at 12:00 am)
Average temperature yesterday: 47 °F

High & Low Weather Summary for the Past Weeks

 TemperatureHumidityPressure
High63 °F (Feb 15, 2:30 pm)100% (Feb 16, 2:00 pm)30.48 "Hg (Feb 16, 2:00 pm)
Low27 °F (Feb 25, 4:30 am)44% (Feb 25, 4:00 pm)29.71 "Hg (Feb 23, 2:00 pm)
Average45 °F83%30.17 "Hg
* Reported Feb 12 6:00 am — Feb 27 6:30 am, Orléans, Weather by CustomWeather, © 2017

Note: Actual official high and low records may vary slightly from our data, if they occured in-between our weather recording intervals... More about our weather records

Advertising

Orléans Weather History for the Previous 24 Hours

Scroll right to see more
 ConditionsComfort  
Time TempWeatherWind HumidityBarometerVisibility
6:30 am
Mon, Feb 27
50 °FOvercast.N/A76%29.74 "HgN/A
6:00 am50 °FOvercast.N/A82%29.74 "HgN/A
5:30 am50 °FOvercast.N/A82%29.74 "HgN/A
5:00 am50 °FOvercast.N/A82%29.77 "HgN/A
4:30 am50 °FMostly cloudy.N/A82%29.77 "HgN/A
4:00 am50 °FMostly cloudy.N/A88%29.80 "HgN/A
3:30 am50 °FOvercast.N/A88%29.80 "HgN/A
3:00 am50 °FMostly cloudy.N/A82%29.83 "HgN/A
2:30 am50 °FOvercast.N/A82%29.83 "HgN/A
2:00 am50 °FPartly cloudy.N/A88%29.86 "HgN/A
1:30 am50 °FOvercast.N/A82%29.86 "HgN/A
1:00 am50 °FOvercast.N/A82%29.86 "HgN/A
12:30 am50 °FPartly cloudy.N/A88%29.89 "HgN/A
12:00 am50 °FMostly cloudy.N/A88%29.89 "HgN/A
11:30 pm
Sun, Feb 26
50 °FOvercast.N/A88%29.89 "HgN/A
11:00 pm52 °FPassing clouds.N/A82%29.89 "HgN/A
10:30 pm52 °FOvercast.N/A88%29.89 "HgN/A
10:00 pm52 °FPartly cloudy.N/A88%29.92 "HgN/A
9:30 pm52 °FMostly cloudy.N/A88%29.92 "HgN/A
9:00 pm52 °FMostly cloudy.N/A88%29.92 "HgN/A
8:30 pm52 °FMostly cloudy.N/A88%29.92 "HgN/A
8:00 pm52 °FMostly cloudy.N/A88%29.92 "HgN/A
7:30 pm52 °FMostly cloudy.N/A88%29.95 "HgN/A
7:00 pm52 °FMostly cloudy.N/A88%29.95 "HgN/A
6:30 pm52 °FMore clouds than sun.N/A88%29.95 "HgN/A
6:00 pm52 °FMostly cloudy.N/A88%29.95 "HgN/A
5:30 pm54 °FCloudy.N/A82%29.95 "HgN/A
5:00 pm54 °FMostly cloudy.N/A82%29.95 "HgN/A
4:30 pm54 °FOvercast.N/A82%29.95 "HgN/A
4:00 pm54 °FOvercast.N/A77%29.95 "HgN/A
3:30 pm52 °FMostly cloudy.N/A82%29.95 "HgN/A
3:00 pm52 °FMostly cloudy.N/A82%29.98 "HgN/A
2:30 pm52 °FLow clouds.N/A82%29.98 "HgN/A
2:00 pm50 °FLow clouds.N/A88%29.98 "HgN/A
1:30 pm50 °FOvercast.N/A88%30.01 "HgN/A
1:00 pm50 °FLow clouds.N/A88%30.01 "HgN/A
12:30 pm50 °FOvercast.N/A82%30.01 "HgN/A
12:00 pm50 °FMostly cloudy.N/A76%30.01 "HgN/A
11:30 am48 °FOvercast.N/A82%30.01 "HgN/A
11:00 am48 °FMostly cloudy.N/A76%30.01 "HgN/A
10:30 am46 °FMostly cloudy.N/A76%30.01 "HgN/A
10:00 am46 °FMostly cloudy.N/A71%30.01 "HgN/A
9:30 am45 °FMostly cloudy.N/A71%30.01 "HgN/A
9:00 am43 °FOvercast.N/A76%30.01 "HgN/A
8:30 am43 °FOvercast.N/A71%30.01 "HgN/A
8:00 am43 °FOvercast.N/A71%30.01 "HgN/A
Weather by CustomWeather, © 2017

See weather overviewHow to use our weather pages